DW7898 Weather Reports


Display with metric or nautical units.
time (UTC)temp
F
wind
direction
speed
MPH
gust
MPH
rain 1hr
in
rain 24hr
in
rain mn
in
humidity
%
barometer
mb
20260508181345 65 121 2.0 5.0 0.00 0.00 0.00 66 1015.0
20260508180353 65 126 2.0 9.0 0.00 0.00 0.00 66 1015.0
20260508175348 65 83 1.0 8.0 0.00 0.00 0.00 66 1014.9
20260508174347 65 139 5.0 9.0 0.00 0.00 0.00 66 1015.0
20260508173353 65 128 6.0 11.0 0.00 0.00 0.00 65 1014.9
20260508172356 65 119 5.0 11.0 0.00 0.00 0.00 63 1014.8
20260508171340 66 137 5.0 10.0 0.00 0.00 0.00 63 1014.9
20260508170345 66 239 1.0 8.0 0.00 0.00 0.00 65 1014.6
20260508165347 66 193 4.0 11.0 0.00 0.00 0.00 64 1014.7
20260508164349 66 188 2.0 9.0 0.00 0.00 0.00 63 1014.7
20260508163340 67 200 3.0 9.0 0.00 0.00 0.00 62 1014.6
20260508162341 66 205 2.0 10.0 0.00 0.00 0.00 61 1014.6
20260508161345 66 100 5.0 11.0 0.00 0.00 0.00 61 1014.6
20260508160354 66 136 5.0 12.0 0.00 0.00 0.00 61 1014.7
20260508155353 66 109 7.0 12.0 0.00 0.00 0.00 60 1014.7
20260508154338 66 145 6.0 11.0 0.00 0.00 0.00 59 1014.7
20260508153340 67 113 5.0 11.0 0.00 0.00 0.00 60 1014.7
20260508152358 67 149 4.0 12.0 0.00 0.00 0.00 59 1014.8
20260508151338 67 333 2.0 10.0 0.00 0.00 0.00 62 1014.7
20260508150350 67 155 2.0 13.0 0.00 0.00 0.00 60 1014.5
20260508145346 67 174 2.0 8.0 0.00 0.00 0.00 60 1014.6
20260508144354 67 125 5.0 11.0 0.00 0.00 0.00 59 1014.6
20260508143355 67 123 6.0 10.0 0.00 0.00 0.00 58 1014.6
20260508142352 68 128 7.0 12.0 0.00 0.00 0.00 58 1014.7
20260508141354 69 123 4.0 9.0 0.00 0.00 0.00 55 1014.8
20260508140337 69 278 2.0 8.0 0.00 0.00 0.00 56 1014.9
20260508135340 68 149 3.0 8.0 0.00 0.00 0.00 56 1015.0
20260508134346 68 186 2.0 9.0 0.00 0.00 0.00 57 1015.1
20260508133351 68 131 3.0 9.0 0.00 0.00 0.00 54 1015.3
20260508132350 68 220 2.0 8.0 0.00 0.00 0.00 55 1015.4
20260508131355 68 222 2.0 7.0 0.00 0.00 0.00 55 1015.3
20260508130341 68 69 5.0 10.0 0.00 0.00 0.00 56 1015.2
20260508125358 67 129 4.0 10.0 0.00 0.00 0.00 57 1015.4
20260508124356 67 134 5.0 14.0 0.00 0.00 0.00 56 1015.5
20260508123354 67 121 3.0 10.0 0.00 0.00 0.00 54 1015.4
20260508122354 67 135 3.0 10.0 0.00 0.00 0.00 54 1015.4
20260508121340 67 159 4.0 8.0 0.00 0.00 0.00 56 1015.4
20260508120340 67 153 2.0 8.0 0.00 0.00 0.00 55 1015.5
20260508115340 66 120 4.0 11.0 0.00 0.00 0.00 56 1015.4
20260508114347 66 108 8.0 11.0 0.00 0.00 0.00 57 1015.4
20260508113350 67 166 4.0 11.0 0.00 0.00 0.00 58 1015.3
20260508112343 67 131 5.0 9.0 0.00 0.00 0.00 57 1015.2
20260508111347 67 74 5.0 9.0 0.00 0.00 0.00 58 1015.3
20260508110354 67 111 7.0 9.0 0.00 0.00 0.00 56 1015.2
20260508105356 66 128 4.0 8.0 0.00 0.00 0.00 56 1015.2
20260508104339 67 155 2.0 10.0 0.00 0.00 0.00 58 1015.3
20260508103344 67 153 2.0 9.0 0.00 0.00 0.00 58 1015.5
20260508102342 67 100 1.0 8.0 0.00 0.00 0.00 59 1015.5
20260508101353 66 136 2.0 10.0 0.00 0.00 0.00 60 1015.6
20260508100338 66 104 4.0 12.0 0.00 0.00 0.00 60 1015.7
20260508095357 66 193 2.0 8.0 0.00 0.00 0.00 64 1015.6
20260508094357 65 133 5.0 8.0 0.00 0.00 0.00 64 1015.7
20260508093338 65 160 3.0 9.0 0.00 0.00 0.00 63 1015.6
20260508092356 65 115 4.0 8.0 0.00 0.00 0.00 62 1015.6
20260508091338 65 128 3.0 8.0 0.00 0.00 0.00 65 1015.3
20260508090344 65 249 4.0 7.0 0.00 0.00 0.00 64 1015.3
20260508085345 65 273 3.0 5.0 0.00 0.00 0.00 63 1015.3
20260508084352 64 239 2.0 7.0 0.00 0.00 0.00 63 1015.3
20260508083353 64 0 1.0 4.0 0.00 0.00 0.00 62 1015.1
20260508082341 63 0 0.0 4.0 0.00 0.00 0.00 62 1015.0
20260508081349 63 16 0.0 4.0 0.00 0.00 0.00 63 1014.8
20260508080349 62 84 0.0 4.0 0.00 0.00 0.00 66 1014.7
20260508075350 61 85 1.0 5.0 0.00 0.00 0.00 69 1014.9
20260508074354 60 76 2.0 4.0 0.00 0.00 0.00 72 1014.8
20260508073354 59 23 0.0 6.0 0.00 0.00 0.00 75 1014.9
20260508072336 58 94 3.0 4.0 0.00 0.00 0.00 78 1014.8
20260508071357 57 63 2.0 5.0 0.00 0.00 0.00 80 1014.6
20260508070357 56 1 3.0 4.0 0.00 0.00 0.00 81 1014.4
20260508065357 56 24 2.0 4.0 0.00 0.00 0.00 82 1014.5
20260508064357 55 27 0.0 4.0 0.00 0.00 0.00 83 1014.5
20260508063343 54 65 1.0 3.0 0.00 0.00 0.00 83 1014.4
20260508062337 54 66 1.0 2.0 0.00 0.00 0.00 84 1014.5
20260508061339 54 66 0.0 3.0 0.00 0.00 0.00 84 1014.4
20260508060342 54 67 1.0 2.0 0.00 0.00 0.00 84 1014.4
20260508055341 53 67 1.0 3.0 0.00 0.00 0.00 84 1014.4
20260508054359 53 72 0.0 3.0 0.00 0.00 0.00 84 1014.3
20260508053356 53 73 0.0 2.0 0.00 0.00 0.00 84 1014.2
20260508052354 53 76 0.0 3.0 0.00 0.00 0.00 84 1014.0
20260508051337 53 132 0.0 2.0 0.00 0.00 0.00 84 1013.8
20260508050342 53 132 0.0 1.0 0.00 0.00 0.00 84 1013.9
20260508045344 53 132 0.0 1.0 0.00 0.00 0.00 83 1013.7
20260508044351 54 132 0.0 0.0 0.00 0.00 0.00 83 1013.8
20260508043355 54 132 0.0 1.0 0.00 0.00 0.00 83 1013.7
20260508042346 54 132 0.0 2.0 0.00 0.00 0.00 83 1013.7
20260508041351 54 132 1.0 3.0 0.00 0.00 0.00 82 1013.5
20260508040338 54 132 0.0 0.0 0.00 0.00 0.00 82 1013.4
20260508035351 54 132 0.0 0.0 0.00 0.00 0.00 82 1013.3
20260508034356 54 132 0.0 0.0 0.00 0.00 0.00 81 1013.4
20260508033338 55 132 0.0 2.0 0.00 0.00 0.00 81 1013.4
20260508032350 55 132 0.0 0.0 0.00 0.00 0.00 81 1013.4
20260508031356 55 132 0.0 1.0 0.00 0.00 0.00 80 1013.4
20260508030356 55 132 0.0 1.0 0.00 0.00 0.00 80 1013.5
20260508025354 56 132 0.0 2.0 0.00 0.00 0.00 80 1013.4
20260508024340 56 132 0.0 0.0 0.00 0.00 0.00 80 1013.4
20260508023343 56 132 0.0 0.0 0.00 0.00 0.00 80 1013.6
20260508022342 56 132 0.0 2.0 0.00 0.00 0.00 79 1013.5
20260508021350 56 132 1.0 3.0 0.00 0.00 0.00 79 1013.6
20260508020353 56 132 1.0 3.0 0.00 0.00 0.00 78 1013.7
20260508015349 57 132 0.0 1.0 0.00 0.00 0.00 77 1013.8
20260508014351 57 133 0.0 1.0 0.00 0.00 0.00 77 1013.9
20260508013337 57 133 0.0 1.0 0.00 0.00 0.00 77 1014.0
20260508012356 57 132 0.0 0.0 0.00 0.00 0.00 76 1014.0
20260508011358 57 132 0.0 2.0 0.00 0.00 0.00 76 1014.1
20260508010338 57 133 1.0 2.0 0.00 0.00 0.00 76 1014.2
20260508005355 57 133 0.0 0.0 0.00 0.00 0.00 76 1014.2
20260508004354 58 133 0.0 2.0 0.00 0.00 0.00 75 1014.2
20260508003356 58 133 0.0 1.0 0.00 0.00 0.00 74 1014.3
20260508002354 58 133 1.0 3.0 0.00 0.00 0.00 74 1014.3
20260508001340 58 133 0.0 0.0 0.00 0.00 0.00 74 1014.5
20260508000335 58 133 0.0 0.0 0.00 0.00 0.00 73 1014.6
20260507235359 58 133 0.0 0.0 0.00 0.00 0.00 73 1014.6
20260507234359 58 133 0.0 0.0 0.00 0.00 0.00 73 1014.7
20260507233342 58 133 0.0 0.0 0.00 0.00 0.00 72 1014.8
20260507232357 58 133 0.0 0.0 0.00 0.00 0.00 71 1014.7
20260507231337 58 133 0.0 1.0 0.00 0.00 0.00 71 1014.9
20260507230342 58 133 0.0 3.0 0.00 0.00 0.00 71 1015.0
20260507225338 58 133 2.0 3.0 0.00 0.00 0.00 71 1015.0
20260507224342 59 133 0.0 1.0 0.00 0.00 0.00 71 1015.2
20260507223348 59 133 0.0 2.0 0.00 0.00 0.00 72 1015.3
20260507222343 59 133 0.0 0.0 0.00 0.00 0.00 72 1015.3
20260507221350 59 133 0.0 2.0 0.00 0.00 0.00 72 1015.2
20260507220337 60 133 0.0 2.0 0.00 0.00 0.00 73 1015.2
20260507215358 59 134 0.0 1.0 0.00 0.00 0.00 72 1015.2
20260507214352 59 134 0.0 2.0 0.00 0.00 0.00 72 1015.2
20260507213356 60 134 3.0 4.0 0.00 0.00 0.00 72 1015.3
20260507212356 60 131 0.0 0.0 0.00 0.00 0.00 73 1015.2
20260507211357 60 131 0.0 2.0 0.00 0.00 0.00 73 1015.3
20260507210337 60 131 2.0 4.0 0.00 0.00 0.00 73 1015.2
20260507205338 61 131 3.0 5.0 0.00 0.00 0.00 72 1015.3
20260507204339 61 104 0.0 0.0 0.00 0.00 0.00 71 1015.1
20260507203340 61 104 0.0 0.0 0.00 0.00 0.00 71 1015.2
20260507202341 61 104 0.0 2.0 0.00 0.00 0.00 70 1015.2
20260507201355 61 105 0.0 2.0 0.00 0.00 0.00 68 1015.0
20260507200357 62 105 2.0 4.0 0.00 0.00 0.00 68 1014.8
20260507195353 62 109 1.0 3.0 0.00 0.00 0.00 67 1014.7
20260507194355 62 109 0.0 4.0 0.00 0.00 0.00 66 1014.6
20260507193353 63 111 2.0 4.0 0.00 0.00 0.00 65 1014.4
20260507192356 63 133 0.0 3.0 0.00 0.00 0.00 64 1014.3
20260507191357 63 123 0.0 2.0 0.00 0.00 0.00 63 1014.2
20260507190340 63 118 1.0 3.0 0.00 0.00 0.00 62 1014.0
20260507185359 63 118 0.0 3.0 0.00 0.00 0.00 61 1014.0
20260507184337 63 118 0.0 5.0 0.00 0.00 0.00 62 1013.9
20260507183341 63 137 1.0 4.0 0.00 0.00 0.00 63 1013.8
20260507182357 63 153 2.0 7.0 0.00 0.00 0.00 63 1013.5